Regional Weather Roundup
Issued by NWS Newport/Morehead, NC

Current Version | Previous Version | Graphics & Text | Print | Product List | Glossary Off
Versions: 1 2 3 4 5 6 7 8 9 10 11 12 13 14 15 16 17 18 19 20 21 22 23 24 25 26 27 28 29 30 31 32 33 34 35 36 37 38 39 40 41 42 43 44 45 46 47 48 49 50
000 ASUS42 KMHX 241113 RWRMHX WEATHER ROUNDUP FOR EASTERN NORTH CAROLINA NATIONAL WEATHER SERVICE NEWPORT/MOREHEAD CITY NC 600 AM EST SAT FEB 24 2018 NOTE: "FAIR" INDICATES FEW OR NO CLOUDS BELOW 12,000 FEET WITH NO SIGNIFICANT WEATHER AND/OR OBSTRUCTIONS TO VISIBILITY NCZ015>017-031-032-045>047-102-103-241200- NORTH COAST CITY SKY/WX TMP DP RH WIND PRES REMARKS EDENTON CLOUDY 63 63 100 SW3 30.24F ELIZABETH CITY CLOUDY 61 61 100 SW9 30.23S FOG KITTY HAWK CLOUDY N/A N/A N/A CALM 30.23S HAZE MANTEO CLOUDY 56 56 100 CALM 30.25S FOG $$ NCZ045>047-081-094-103-104-241200- CENTRAL COAST CITY SKY/WX TMP DP RH WIND PRES REMARKS FRISCO FAIR 64 64 100 W6 30.25R $$ NCZ095-097-098-100-101-241200- SOUTHERN COAST CITY SKY/WX TMP DP RH WIND PRES REMARKS BEAUFORT CLOUDY 64 62 93 SW12 30.26R CEDAR ISLAND NOT AVBL JACKSONVILLE CLOUDY 64 63 96 SW6 30.25S PINEY ISLAND NOT AVBL WILMINGTON CLOUDY 64 63 96 S7 30.26S $$ NCZ011>013-027>030-043-044-078>080-089-090>093-098-241200- COASTAL PLAIN CITY SKY/WX TMP DP RH WIND PRES REMARKS AHOSKIE CLOUDY 61 61 100 SW3 30.22S CLINTON CLOUDY 63 63 100 SW3 30.26S ELIZABETHTOWN NOT AVBL GOLDSBORO CLOUDY 62 61 97 SW8 30.23R GREENVILLE CLOUDY 63 63 100 SW9 30.24S HAVELOCK PTCLDY 66 65 96 SW7 30.26S KENANSVILLE FOG 61 61 100 SW8 30.26R VSB 1 KINSTON CLOUDY 62 62 100 SW7 30.25S NEW BERN FOG 56 56 100 CALM 30.26S VSB 1/4 RICHLANDS MOCLDY 61 61 100 S7 30.26S FOG ROCKY MOUNT CLOUDY 62 61 96 SW9 30.23S WASHINGTON CLOUDY 62 61 97 S3 30.24F WHITEVILLE FOG 63 62 97 CALM 30.26R VSB 1/2 $$ AMZ130-135-150-152-154-156-158-170-250-252-270-ANZ085-086-088-633-658-670-241200- MARINE OBSERVATIONS STATION/POSITION TIME TEMP WIND PRES WAVE SWELL AIR SEA DIR/SP/G HT/PER HT/PER (UTC) (F) (DEG/KT/KT) (MB) (FT/S) (FT/S) CHESAPEAKE LIGHT NOT AVBL 64 E VA BEACH 1050 51 49 230/ 6/ 8 1023.9 4/ 9 3/ 9 DUCK 1036 58 45 230/ 8/ 10 1023.4 2 E DUCK 1030 46 N/A 3/ 9 2/11 OREGON INLET 1036 56 53 200/ 8/ 9 1023.9 13E OREGON INLT 1048 49 N/A 4/ 9 3/ 9 HATTERAS CG 1036 63 61 240/ 5/ 7 1024.2 DIAMOND BUOY 1050 72 73 240/ 16/ 19 1024.4 5/ 9 3/ 9 CAPE LOOKOUT 1100 250/ 9/ 10 1024.8 BEAUFORT LAB 1036 63 60 230/ 2/ 7 1024.7 30 SE NEW RVR IN NOT AVBL 30 SE NEW RVR IN 1100 69 N/A 5/ 9 2/11 27 SE WRIGHTSVLE 1008 67 69 230/ 12/ 16 1024.9 5 SE WRIGHTSVLE NOT AVBL 225 S CAPE HAT 0950 71 73 180/ 10/ 12 1025.8 5/ 9 5/ 9 41 SE CHARLESTON 1100 69 200/ 2/ 4 1024.6 $$

USA.gov is the U.S. government's official web portal to all federal, state and local government web resources and services.